Date String (YYYY-MM-DD hh:mm:ss) UTC,Instrument flags,Ambient pressure (hPa),Sample flow (lpm),Bypass flow (lpm),Sample temperature (°C),Ambient temperature (°C),ASC tube jacket temperature (°C),LED temperature (°C),Box temperature (°C),Sample RH (%),Span deviation,Mass concentration (μg/m³),Mass concentration (μg/m³),Mass concentration (μg/m³)
DateTimeUTC,F1_M11,P_M11,Q1_M11,Q2_M11,T1_M11,T2_M11,T3_M11,T4_M11,T5_M11,U1_M11,ZSPAN_M11,X0_M11,X2_M11,X1_M11
2022-04-07 23:00:00,,0830.7,5.00,0.00,26.3,25.6,00.0,35.3,28.1,03.3,0000.0,0004.81,0001.59,0000.90
2022-04-07 23:01:00,,0830.7,5.00,0.00,26.3,25.6,00.0,35.3,28.1,03.4,0000.0,0004.41,0001.54,0000.89
2022-04-07 23:02:00,,0830.7,5.00,0.00,26.3,25.6,00.0,35.3,28.1,03.5,0000.0,0004.33,0001.52,0000.88
2022-04-07 23:03:00,,0830.7,5.00,0.00,26.3,25.6,00.0,35.3,28.1,03.4,0000.0,0004.28,0001.53,0000.89
2022-04-07 23:04:00,,0830.8,5.00,0.00,26.3,25.6,00.0,35.3,28.1,03.6,0000.0,0003.97,0001.54,0000.89
2022-04-07 23:05:00,,0830.8,5.00,0.00,26.3,25.6,00.0,35.3,28.1,03.5,0000.0,0003.22,0001.56,0000.89
2022-04-07 23:06:00,,0830.7,4.99,0.00,26.3,25.6,00.0,35.3,28.1,03.5,0000.0,0003.24,0001.52,0000.89
2022-04-07 23:07:00,,0830.7,5.00,0.00,26.3,25.6,00.0,35.3,28.1,03.5,0000.0,0003.05,0001.49,0000.88
2022-04-07 23:08:00,,0830.8,4.99,0.00,26.3,25.6,00.0,35.3,28.1,03.5,0000.0,0004.69,0001.52,0000.88
2022-04-07 23:09:00,,0830.7,5.00,0.00,26.3,25.6,00.0,35.3,28.1,03.5,0000.0,0005.54,0001.46,0000.88
2022-04-07 23:10:00,,0830.8,4.99,0.00,26.3,25.6,00.0,35.3,28.1,03.5,0000.0,0006.39,0001.44,0000.89
2022-04-07 23:11:00,,0831.0,5.00,0.00,26.3,25.6,00.0,35.3,28.1,03.4,0000.0,0006.64,0001.47,0000.89
2022-04-07 23:12:00,,0830.9,5.01,0.00,26.3,25.6,00.0,35.3,28.1,03.6,0000.0,0006.66,0001.46,0000.88
2022-04-07 23:13:00,,0830.9,5.01,0.00,26.4,25.7,00.0,35.3,28.2,03.7,0000.0,0006.84,0001.49,0000.90
2022-04-07 23:14:00,,0830.9,5.01,0.00,26.4,25.7,00.0,35.3,28.2,03.5,0000.0,0006.99,0001.54,0000.90
2022-04-07 23:15:00,,0830.9,4.99,0.00,26.4,25.7,00.0,35.3,28.2,03.5,0000.0,0006.94,0001.53,0000.89
2022-04-07 23:16:00,,0830.9,5.00,0.00,26.4,25.7,00.0,35.3,28.2,03.6,0000.0,0006.92,0001.56,0000.90
2022-04-07 23:17:00,,0830.7,4.99,0.00,26.4,25.6,00.0,35.3,28.2,03.7,0000.0,0006.65,0001.50,0000.89
2022-04-07 23:18:00,,0830.7,5.01,0.00,26.4,25.7,00.0,35.3,28.2,03.6,0000.0,0006.62,0001.51,0000.89
2022-04-07 23:19:00,,0830.8,5.00,0.00,26.4,25.6,00.0,35.3,28.2,03.5,0000.0,0007.39,0001.47,0000.89
2022-04-07 23:20:00,,0830.8,4.99,0.00,26.4,25.6,00.0,35.3,28.2,03.4,0000.0,0006.62,0001.46,0000.88
2022-04-07 23:21:00,,0830.7,5.00,0.00,26.4,25.6,00.0,35.3,28.2,03.4,0000.0,0005.48,0001.44,0000.88
2022-04-07 23:22:00,,0830.6,5.00,0.00,26.4,25.6,00.0,35.3,28.2,03.4,0000.0,0005.10,0001.41,0000.87
2022-04-07 23:23:00,,0830.8,4.99,0.00,26.4,25.6,00.0,35.3,28.2,03.4,0000.0,0005.25,0001.44,0000.88
2022-04-07 23:24:00,,0830.8,4.99,0.00,26.4,25.6,00.0,35.3,28.2,03.3,0000.0,0005.23,0001.42,0000.88
2022-04-07 23:25:00,,0830.7,5.01,0.00,26.4,25.6,00.0,35.3,28.1,03.4,0000.0,0005.17,0001.42,0000.88
2022-04-07 23:26:00,,0830.6,5.01,0.00,26.4,25.6,00.0,35.3,28.1,03.4,0000.0,0005.33,0001.46,0000.89
2022-04-07 23:27:00,,0830.8,4.99,0.00,26.4,25.6,00.0,35.3,28.1,03.4,0000.0,0005.28,0001.42,0000.89
2022-04-07 23:28:00,,0830.9,4.99,0.00,26.3,25.6,00.0,35.3,28.1,03.3,0000.0,0005.35,0001.44,0000.89
2022-04-07 23:29:00,,0830.9,4.99,0.00,26.3,25.6,00.0,35.3,28.1,03.3,0000.0,0005.31,0001.43,0000.89
2022-04-07 23:30:00,,0830.9,5.01,0.00,26.3,25.6,00.0,35.3,28.1,03.5,0000.0,0003.89,0001.45,0000.89
2022-04-07 23:31:00,,0830.9,5.01,0.00,26.3,25.6,00.0,35.3,28.1,03.4,0000.0,0002.79,0001.43,0000.88
2022-04-07 23:32:00,,0830.8,5.00,0.00,26.3,25.6,00.0,35.3,28.1,03.5,0000.0,0003.16,0001.43,0000.89
2022-04-07 23:33:00,,0830.7,4.99,0.00,26.3,25.6,00.0,35.3,28.1,03.5,0000.0,0003.34,0001.44,0000.89
2022-04-07 23:34:00,,0830.8,5.00,0.00,26.3,25.6,00.0,35.3,28.0,03.4,0000.0,0003.31,0001.42,0000.88
2022-04-07 23:35:00,,0830.8,4.99,0.00,26.3,25.6,00.0,35.3,28.0,03.4,0000.0,0003.15,0001.42,0000.87
2022-04-07 23:36:00,,0830.8,5.01,0.00,26.3,25.6,00.0,35.3,28.0,03.5,0000.0,0003.41,0001.45,0000.88
2022-04-07 23:37:00,,0830.9,5.01,0.00,26.3,25.6,00.0,35.3,28.0,03.4,0000.0,0003.52,0001.45,0000.88
2022-04-07 23:38:00,,0830.8,5.00,0.00,26.3,25.6,00.0,35.3,28.1,03.4,0000.0,0003.98,0001.56,0000.87
2022-04-07 23:39:00,,0830.7,5.00,0.00,26.3,25.6,00.0,35.3,28.1,03.6,0000.0,0004.00,0001.56,0000.86
2022-04-07 23:40:00,,0830.8,4.99,0.00,26.3,25.6,00.0,35.3,28.0,03.6,0000.0,0004.16,0001.61,0000.87
2022-04-07 23:41:00,,0830.7,4.99,0.00,26.3,25.6,00.0,35.3,28.1,03.7,0000.0,0004.42,0001.63,0000.87
2022-04-07 23:42:00,,0830.8,5.00,0.00,26.3,25.6,00.0,35.3,28.0,03.5,0000.0,0004.86,0001.62,0000.87
2022-04-07 23:43:00,,0830.8,5.00,0.00,26.3,25.6,00.0,35.3,28.0,03.5,0000.0,0004.41,0001.62,0000.88
2022-04-07 23:44:00,,0830.9,5.00,0.00,26.3,25.6,00.0,35.3,28.0,03.6,0000.0,0004.55,0001.69,0000.88
2022-04-07 23:45:00,,0830.8,4.99,0.00,26.3,25.6,00.0,35.3,28.1,03.6,0000.0,0004.73,0001.72,0000.88
2022-04-07 23:46:00,,0830.7,5.00,0.00,26.3,25.6,00.0,35.3,28.1,03.5,0000.0,0005.10,0001.74,0000.88
2022-04-07 23:47:00,,0830.7,5.01,0.00,26.3,25.6,00.0,35.3,28.0,03.6,0000.0,0005.57,0001.72,0000.88
2022-04-07 23:48:00,,0830.8,5.00,0.00,26.3,25.5,00.0,35.3,28.0,03.5,0000.0,0005.75,0001.69,0000.88
2022-04-07 23:49:00,,0830.9,5.00,0.00,26.3,25.5,00.0,35.3,28.1,03.4,0000.0,0005.21,0001.56,0000.88
2022-04-07 23:50:00,,0830.9,4.99,0.00,26.3,25.6,00.0,35.3,28.1,03.5,0000.0,0005.22,0001.59,0000.89
2022-04-07 23:51:00,,0830.7,5.00,0.00,26.3,25.6,00.0,35.3,28.1,03.5,0000.0,0005.09,0001.56,0000.90
2022-04-07 23:52:00,,0830.7,5.01,0.00,26.3,25.6,00.0,35.3,28.0,03.4,0000.0,0004.99,0001.56,0000.90
2022-04-07 23:53:00,,0830.7,5.01,0.00,26.3,25.5,00.0,35.3,28.1,03.4,0000.0,0004.54,0001.58,0000.90
2022-04-07 23:54:00,,0830.7,5.00,0.00,26.3,25.6,00.0,35.3,28.1,03.4,0000.0,0004.60,0001.59,0000.89
2022-04-07 23:55:00,,0830.8,5.00,0.00,26.3,25.6,00.0,35.3,28.1,03.4,0000.0,0004.30,0001.50,0000.89
2022-04-07 23:56:00,,0830.9,5.00,0.00,26.3,25.6,00.0,35.2,28.1,03.4,0000.0,0004.13,0001.46,0000.88
2022-04-07 23:57:00,,0830.8,5.01,0.00,26.3,25.6,00.0,35.2,28.1,03.5,0000.0,0003.75,0001.40,0000.87
2022-04-07 23:58:00,,0830.8,5.00,0.00,26.3,25.6,00.0,35.2,28.1,03.5,0000.0,0002.94,0001.36,0000.86
2022-04-07 23:59:00,,0830.9,5.00,0.00,26.3,25.6,00.0,35.2,28.1,03.4,0000.0,0002.36,0001.34,0000.84
